Weather reports worldwide

Advertisment
Leconfield, United Kingdom (3382): temperature & dewpoint: 20.04.2018 23:00:00 - 26.04.2018 23:00:00 (BST)Leconfield, United Kingdom (3382): temperature -20cm & temperature -100cm: 20.04.2018 23:00:00 - 26.04.2018 23:00:00 (BST)Leconfield, United Kingdom (3382): wind speed & gusts: 20.04.2018 23:00:00 - 26.04.2018 23:00:00 (BST)Leconfield, United Kingdom (3382): wind direction: 20.04.2018 23:00:00 - 26.04.2018 23:00:00 (BST)Leconfield, United Kingdom (3382): reduced air pressure: 20.04.2018 23:00:00 - 26.04.2018 23:00:00 (BST)Leconfield, United Kingdom (3382): visibility: 20.04.2018 23:00:00 - 26.04.2018 23:00:00 (BST)Leconfield, United Kingdom (3382): sunshine duration: 20.04.2018 23:00:00 - 26.04.2018 23:00:00 (BST)Leconfield, United Kingdom (3382): precipitation: 20.04.2018 23:00:00 - 26.04.2018 23:00:00 (BST)
Date & Time tt [°C] td [°C] tt -20cm [°C] tt -100cm [°C] ff [km/h] ff [kn] fx [km/h] fx [kn] dd ppp [hPa] vv [km] sd [min] rr [mm]
26.04.2018 23:00:00 7,6 4,2 - - 13 7 - - WSW 1012,0 10 0 0,0
26.04.2018 22:00:00 7,9 4,2 - - 16 9 - - W 1011,7 10 0 0,0
26.04.2018 21:00:00 9,0 3,8 - - 18 10 - - WSW 1011,9 10 0 0,0
26.04.2018 20:00:00 10,3 3,4 - - 24 13 - - WSW 1011,5 10 36 0,0
26.04.2018 19:00:00 10,8 3,4 - - 28 15 - - W 1011,2 10 42 0,0
26.04.2018 18:00:00 11,6 3,0 - - 26 14 50 27 W 1011,3 10 54 0,0
26.04.2018 17:00:00 12,4 4,1 - - 26 14 - - W 1011,3 10 18 0,0
26.04.2018 16:00:00 11,6 3,7 - - 26 14 59 32 W 1011,2 10 6 0,0
26.04.2018 15:00:00 12,3 4,6 - - 28 15 54 29 W 1011,3 10 6 0,0
26.04.2018 14:00:00 12,1 3,6 - - 29 16 55 30 WSW 1011,0 10 42 0,0
26.04.2018 13:00:00 11,4 4,4 - - 29 16 54 29 WSW 1010,7 10 42 0,0
26.04.2018 12:00:00 11,1 4,7 - - 34 18 57 31 WSW 1010,7 10 48 0,0
26.04.2018 11:00:00 10,3 5,2 - - 31 17 50 27 WSW 1010,5 10 24 0,4
26.04.2018 10:00:00 8,3 4,9 10,7 9,7 24 13 55 30 W 1010,4 10 24 0,2
26.04.2018 09:00:00 9,2 4,5 - - 28 15 48 26 WSW 1010,2 10 54 0,0
26.04.2018 08:00:00 8,6 4,4 - - 28 15 - - W 1009,8 10 54 0,0
26.04.2018 07:00:00 7,5 4,5 - - 16 9 - - WSW 1009,6 10 48 0,0
26.04.2018 06:00:00 6,9 4,2 - - 18 10 - - WSW 1009,1 10 0 0,0
26.04.2018 05:00:00 7,1 4,2 - - 24 13 - - WSW 1008,9 10 0 0,0
26.04.2018 04:00:00 6,9 4,3 - - 15 8 - - WSW 1008,9 10 0 0,0
26.04.2018 03:00:00 7,3 4,6 - - 16 9 - - WSW 1008,5 10 0 0,0
26.04.2018 02:00:00 7,6 4,3 - - 21 11 - - SW 1008,7 10 0 0,0
26.04.2018 01:00:00 7,3 3,9 - - 13 7 - - WSW 1008,8 10 - 0,0
26.04.2018 00:00:00 7,7 4,0 - - 16 9 - - WSW 1008,5 10 0 0,0
25.04.2018 23:00:00 8,0 4,5 - - 11 6 - - WSW 1008,4 10 0 0,0
25.04.2018 22:00:00 8,9 4,4 - - 11 6 - - W 1008,2 10 0 0,0
25.04.2018 21:00:00 8,8 4,5 - - 9 5 - - WSW 1007,6 10 0 0,0
25.04.2018 20:00:00 10,5 5,4 - - 13 7 - - WSW 1007,1 10 0 0,0
25.04.2018 19:00:00 11,4 4,9 - - 15 8 - - WSW 1006,5 10 12 0,0
25.04.2018 18:00:00 12,0 4,8 - - 21 11 - - W 1006,6 10 18 0,0
25.04.2018 17:00:00 11,5 5,0 - - 24 13 - - WSW 1006,8 10 36 0,0
25.04.2018 16:00:00 12,1 5,5 - - 21 11 - - WSW 1007,0 10 36 0,0
25.04.2018 15:00:00 13,1 4,0 - - 24 13 54 29 W 1007,3 10 30 0,0
25.04.2018 14:00:00 12,2 4,4 - - 29 16 46 25 WSW 1007,4 10 36 0,0
25.04.2018 13:00:00 12,6 5,3 - - 28 15 - - WSW 1007,5 10 30 0,0
25.04.2018 12:00:00 11,8 4,9 - - 24 13 - - W 1007,6 10 18 0,0
25.04.2018 11:00:00 10,8 5,3 - - 21 11 - - W 1008,0 10 24 0,0
25.04.2018 10:00:00 10,3 5,8 11,0 9,7 21 11 - - W 1007,6 10 18 0,0
25.04.2018 09:00:00 9,5 6,0 - - 15 8 - - W 1007,4 10 48 0,0
25.04.2018 08:00:00 8,3 6,1 - - 16 9 - - W 1007,1 10 0 0,0
25.04.2018 07:00:00 7,8 6,5 - - 13 7 - - WSW 1006,5 10 0 0,0
25.04.2018 06:00:00 7,5 6,1 - - 16 9 - - WSW 1005,8 10 0 0,0
25.04.2018 05:00:00 7,1 5,8 - - 15 8 - - WSW 1005,9 10 0 0,0
25.04.2018 04:00:00 6,5 5,2 - - 8 4 - - WSW 1006,0 10 0 0,0
25.04.2018 03:00:00 6,7 5,7 - - 13 7 - - W 1005,8 10 0 0,0
25.04.2018 02:00:00 7,2 6,5 - - 13 7 - - W 1005,9 10 0 0,0
25.04.2018 01:00:00 8,2 7,5 - - 9 5 - - W 1005,4 10 - 0,0
25.04.2018 00:00:00 8,1 7,5 - - 8 4 - - WNW 1005,0 8 0 0,0
24.04.2018 23:00:00 8,3 7,7 - - 9 5 - - N 1004,4 7 0 0,6
24.04.2018 22:00:00 8,3 8,0 - - 13 7 - - NNW 1004,2 6 0 1,4
24.04.2018 21:00:00 8,2 7,9 - - 13 7 - - NNE 1003,7 4,1 0 2,6
24.04.2018 20:00:00 8,6 8,2 - - 13 7 - - NE 1004,5 2,0 0 1,6
24.04.2018 19:00:00 9,5 8,9 - - 11 6 - - E 1005,3 5 0 0,6
24.04.2018 18:00:00 9,6 8,7 - - 9 5 - - E 1006,3 7 0 1,6
24.04.2018 17:00:00 9,9 8,5 - - 2 1 - - S 1007,9 8 0 1,4
24.04.2018 16:00:00 10,3 8,3 - - 9 5 - - SW 1009,1 9 0 1,2
24.04.2018 15:00:00 11,4 7,5 - - 13 7 - - SSW 1009,9 10 0 0,2
24.04.2018 14:00:00 11,4 7,3 - - 18 10 - - SW 1010,6 10 0 0,2
24.04.2018 13:00:00 12,1 6,1 - - 18 10 - - SW 1011,2 10 0 0,0
24.04.2018 12:00:00 12,6 5,4 - - 16 9 - - WSW 1011,6 10 0 0,0
24.04.2018 11:00:00 12,0 6,5 - - 21 11 - - WSW 1011,5 10 0 0,0
24.04.2018 10:00:00 11,0 6,5 11,4 9,7 18 10 - - WSW 1011,6 10 0 0,0
24.04.2018 09:00:00 10,4 6,0 - - 15 8 - - WSW 1011,5 10 0 0,0
24.04.2018 08:00:00 10,0 5,8 - - 11 6 - - W 1011,4 10 0 0,0
24.04.2018 07:00:00 9,8 5,7 - - 9 5 - - W 1010,7 10 0 0,0
24.04.2018 06:00:00 9,2 5,7 - - 9 5 - - SW 1010,1 10 0 0,0
24.04.2018 05:00:00 9,0 6,0 - - 9 5 - - SSW 1009,9 10 0 0,0
24.04.2018 04:00:00 8,6 5,4 - - 9 5 - - S 1010,0 10 0 0,0
24.04.2018 03:00:00 9,4 5,5 - - 8 4 - - SW 1010,3 10 0 0,0
24.04.2018 02:00:00 11,1 6,0 - - 24 13 - - W 1009,7 10 0 0,0
24.04.2018 01:00:00 12,2 6,8 - - 22 12 - - W 1009,4 10 - 0,0
24.04.2018 00:00:00 12,2 8,5 - - 16 9 - - SW 1009,1 10 0 0,0
23.04.2018 23:00:00 12,0 8,1 - - 21 11 - - SW 1009,0 10 0 0,0
23.04.2018 22:00:00 12,1 7,7 - - 18 10 - - SW 1009,1 10 0 0,0
23.04.2018 21:00:00 12,7 7,4 - - 24 13 - - WSW 1009,5 10 0 0,0
23.04.2018 20:00:00 13,7 6,9 - - 21 11 - - SW 1009,0 45 0 0,0
23.04.2018 19:00:00 13,9 6,0 - - 21 11 - - SW 1009,4 45 0 0,2
23.04.2018 18:00:00 13,5 4,7 - - 22 12 48 26 WSW 1010,2 50 0 0,0
23.04.2018 17:00:00 14,0 4,9 - - 28 15 52 28 SW 1010,5 35 12 0,0
23.04.2018 16:00:00 14,1 4,9 - - 18 10 - - WSW 1010,9 30 0 0,0
23.04.2018 15:00:00 13,9 4,2 - - 26 14 46 25 WSW 1011,8 26 0 0,0
23.04.2018 14:00:00 12,5 3,9 - - 22 12 57 31 W 1012,2 45 0 0,0
23.04.2018 13:00:00 12,3 4,1 - - 29 16 48 26 WSW 1012,3 30 18 0,0
23.04.2018 12:00:00 12,8 5,6 - - 31 17 50 27 WSW 1012,0 24 36 0,0
23.04.2018 11:00:00 11,7 5,2 - - 26 14 48 26 WSW 1012,0 30 18 0,0
23.04.2018 10:00:00 11,6 5,6 11,7 9,5 31 17 50 27 WSW 1011,2 23 18 0,0
23.04.2018 09:00:00 10,9 6,3 - - 22 12 - - WSW 1011,0 35 30 0,0
23.04.2018 08:00:00 10,7 7,0 - - 18 10 - - WSW 1010,8 25 36 0,0
23.04.2018 07:00:00 9,9 6,5 - - 18 10 - - WSW 1010,3 45 0 0,0
23.04.2018 06:00:00 9,9 6,4 - - 21 11 - - WSW 1009,9 40 0 0,0
23.04.2018 05:00:00 9,6 6,4 - - 18 10 - - WSW 1009,3 45 0 0,0
23.04.2018 04:00:00 9,8 6,6 - - 16 9 - - WSW 1009,2 40 0 0,0
23.04.2018 03:00:00 9,8 6,5 - - 15 8 - - WSW 1009,2 50 0 0,0
23.04.2018 02:00:00 9,9 6,2 - - 16 9 - - WSW 1008,9 45 0 0,0
23.04.2018 01:00:00 9,1 6,0 - - 9 5 - - SW 1008,5 10 - 0,0
23.04.2018 00:00:00 8,5 5,3 - - 9 5 - - SSW 1008,4 10 0 0,0
22.04.2018 23:00:00 8,8 5,5 - - 9 5 - - WSW 1008,4 10 0 0,0
22.04.2018 22:00:00 9,8 5,8 - - 9 5 - - WSW 1008,2 10 0 0,0
22.04.2018 21:00:00 12,1 7,5 - - 13 7 - - W 1007,7 10 6 0,0
22.04.2018 20:00:00 13,1 8,3 - - 15 8 - - W 1007,1 50 6 0,0
22.04.2018 19:00:00 13,7 8,7 - - 16 9 - - W 1006,6 40 12 0,0
22.04.2018 18:00:00 17,1 8,3 - - 21 11 - - W 1005,9 45 60 0,0
22.04.2018 17:00:00 17,2 9,2 - - 21 11 - - W 1006,0 21 30 0,0
22.04.2018 16:00:00 17,5 8,9 - - 21 11 - - WSW 1006,1 29 42 0,0
22.04.2018 15:00:00 15,9 8,6 - - 22 12 - - SW 1006,4 45 0 0,0
22.04.2018 14:00:00 14,8 8,0 - - 16 9 - - W 1006,6 17 0 0,0
22.04.2018 13:00:00 16,6 8,7 - - 26 14 - - W 1006,4 10 18 0,0
22.04.2018 12:00:00 19,3 11,4 - - 22 12 - - SW 1006,0 10 48 0,0
22.04.2018 11:00:00 19,5 12,8 - - 24 13 - - SW 1005,8 10 60 0,0
22.04.2018 10:00:00 18,6 12,4 11,7 9,2 22 12 - - SSW 1005,9 10 60 0,0
22.04.2018 09:00:00 16,6 12,0 - - 15 8 - - S 1006,6 10 54 0,0
22.04.2018 08:00:00 15,3 11,5 - - 8 4 - - SSW 1007,1 10 36 0,0
22.04.2018 07:00:00 13,7 11,2 - - 4 2 - - SE 1007,7 13 0 0,0
22.04.2018 06:00:00 14,5 11,4 - - 2 1 - - S 1008,2 15 0 0,0
22.04.2018 05:00:00 15,1 11,5 - - 15 8 - - S 1008,9 11 0 0,0
22.04.2018 04:00:00 10,5 9,8 - - 2 1 - - SW 1010,4 4,7 0 0,0
22.04.2018 03:00:00 10,7 9,6 - - 4 2 - - N 1011,1 6 0 0,0
22.04.2018 02:00:00 10,2 8,6 - - 2 1 - - E 1011,8 6 0 0,0
22.04.2018 01:00:00 9,8 7,9 - - 4 2 - - E 1012,5 7 - 0,0
22.04.2018 00:00:00 11,2 8,4 - - 5 3 - - SSE 1013,3 10 0 0,0
21.04.2018 23:00:00 10,4 8,7 - - 9 5 - - E 1013,6 9 0 0,0
21.04.2018 22:00:00 10,2 8,2 - - 8 4 - - ESE 1014,0 10 0 0,0
21.04.2018 21:00:00 11,0 8,1 - - 13 7 - - ESE 1014,6 10 0 0,0
21.04.2018 20:00:00 12,7 8,9 - - 11 6 - - SE 1015,2 20 18 0,0
21.04.2018 19:00:00 13,8 9,6 - - 15 8 - - SE 1015,8 23 0 0,0
21.04.2018 18:00:00 14,8 9,5 - - 15 8 - - ESE 1016,6 27 18 0,0
21.04.2018 17:00:00 16,9 10,9 - - 15 8 - - ESE 1017,5 15 54 0,0
21.04.2018 16:00:00 16,2 10,8 - - 16 9 - - ESE 1018,3 25 36 0,0
21.04.2018 15:00:00 17,4 10,3 - - 16 9 - - SE 1019,2 25 60 0,0
21.04.2018 14:00:00 16,6 10,3 - - 16 9 - - ESE 1020,1 30 36 0,0
21.04.2018 13:00:00 16,1 9,8 - - 16 9 - - ESE 1021,0 10 48 0,0
21.04.2018 12:00:00 15,7 10,0 - - 11 6 - - ESE 1021,7 10 60 0,0
21.04.2018 11:00:00 13,9 8,8 - - 13 7 - - ESE 1022,7 10 54 0,0
21.04.2018 10:00:00 12,9 7,9 11,4 9,0 11 6 - - ESE 1023,0 10 60 0,0
21.04.2018 09:00:00 12,1 8,9 - - 8 4 - - E 1023,3 10 60 0,0
21.04.2018 08:00:00 9,3 7,0 - - 5 3 - - NNE 1023,6 24 18 0,0
21.04.2018 07:00:00 5,5 5,0 - - 4 2 - - NW 1023,6 35 0 0,0
21.04.2018 06:00:00 4,4 3,8 - - 2 1 - - WNW 1023,4 27 0 0,0
21.04.2018 05:00:00 3,9 2,9 - - 2 1 - - NW 1023,2 35 0 0,0
21.04.2018 04:00:00 4,9 3,4 - - 0 0 - - N 1023,3 28 0 0,0
21.04.2018 03:00:00 5,8 3,8 - - 5 3 - - WNW 1023,6 40 0 0,0
21.04.2018 02:00:00 7,0 4,0 - - 5 3 - - W 1023,8 40 0 0,0
21.04.2018 01:00:00 8,1 4,2 - - 8 4 - - W 1024,1 10 - 0,0
21.04.2018 00:00:00 8,3 4,4 - - 8 4 - - W 1024,2 10 0 0,0
20.04.2018 23:00:00 9,5 4,7 - - 8 4 - - WSW 1024,0 10 0 0,0

tt = temperature
td = dewpoint
tt -20cm = temperature -20cm
tt -100cm = temperature -100cm
ff = wind speed
fx = gusts
dd = wind direction
ppp = reduced air pressure
vv = visibility
sd = sunshine duration
rr = precipitation

Next stations